Year,Month,Day,Hour,Minute,Value (Times are PST for barometer in hPa)
2008,01,04,00,00,994.21
2008,01,04,00,01,994.24
2008,01,04,00,02,994.21
2008,01,04,00,03,994.19
2008,01,04,00,04,994.24
2008,01,04,00,05,994.21
2008,01,04,00,06,994.18
2008,01,04,00,07,994.21
2008,01,04,00,08,994.18
2008,01,04,00,09,994.14
2008,01,04,00,10,994.18
2008,01,04,00,11,994.18
2008,01,04,00,12,994.14
2008,01,04,00,13,994.11
2008,01,04,00,14,994.11
2008,01,04,00,15,994.14
2008,01,04,00,16,994.06
2008,01,04,00,17,993.94
2008,01,04,00,18,993.86
2008,01,04,00,19,993.76
2008,01,04,00,20,993.67
2008,01,04,00,21,993.62
2008,01,04,00,22,993.57
2008,01,04,00,23,993.53
2008,01,04,00,24,993.57
2008,01,04,00,25,993.57
2008,01,04,00,26,993.54
2008,01,04,00,27,993.60
2008,01,04,00,28,993.60
2008,01,04,00,29,993.62
2008,01,04,00,30,993.57
2008,01,04,00,31,993.53
2008,01,04,00,32,993.53
2008,01,04,00,33,993.50
2008,01,04,00,34,993.47
2008,01,04,00,35,993.46
2008,01,04,00,36,993.40
2008,01,04,00,37,993.36
2008,01,04,00,38,993.36
2008,01,04,00,39,993.40
2008,01,04,00,40,993.36
2008,01,04,00,41,993.36
2008,01,04,00,42,993.33
2008,01,04,00,43,993.32
2008,01,04,00,44,993.25
2008,01,04,00,45,993.16
2008,01,04,00,46,993.13
2008,01,04,00,47,993.12
2008,01,04,00,48,993.03
2008,01,04,00,49,993.06
2008,01,04,00,50,993.03
2008,01,04,00,51,993.06
2008,01,04,00,52,993.06
2008,01,04,00,53,993.08
2008,01,04,00,54,993.03
2008,01,04,00,55,992.96
2008,01,04,00,56,992.91
2008,01,04,00,57,992.86
2008,01,04,00,58,992.86
2008,01,04,00,59,992.86
2008,01,04,01,00,992.82
2008,01,04,01,01,992.75
2008,01,04,01,02,992.72
2008,01,04,01,03,992.72
2008,01,04,01,04,992.69
2008,01,04,01,05,992.72
2008,01,04,01,06,992.75
2008,01,04,01,07,992.83
2008,01,04,01,08,992.93
2008,01,04,01,09,992.99
2008,01,04,01,10,992.99
2008,01,04,01,11,993.03
2008,01,04,01,12,992.99
2008,01,04,01,13,993.03
2008,01,04,01,14,992.99
2008,01,04,01,15,992.95
2008,01,04,01,16,992.82
2008,01,04,01,17,992.78
2008,01,04,01,18,992.69
2008,01,04,01,19,992.69
2008,01,04,01,20,992.62
2008,01,04,01,21,992.61
2008,01,04,01,22,992.54
2008,01,04,01,23,992.48
2008,01,04,01,24,992.48
2008,01,04,01,25,992.42
2008,01,04,01,26,992.38
2008,01,04,01,27,992.31
2008,01,04,01,28,992.28
2008,01,04,01,29,992.22
2008,01,04,01,30,992.30
2008,01,04,01,31,992.25
2008,01,04,01,32,992.25
2008,01,04,01,33,992.31
2008,01,04,01,34,992.31
2008,01,04,01,35,992.31
2008,01,04,01,36,992.35
2008,01,04,01,37,992.35
2008,01,04,01,38,992.31
2008,01,04,01,39,992.28
2008,01,04,01,40,992.26
2008,01,04,01,41,992.35
2008,01,04,01,42,992.35
2008,01,04,01,43,992.38
2008,01,04,01,44,992.38
2008,01,04,01,45,992.42
2008,01,04,01,46,992.39
2008,01,04,01,47,992.44
2008,01,04,01,48,992.31
2008,01,04,01,49,992.36
2008,01,04,01,50,992.42
2008,01,04,01,51,992.45
2008,01,04,01,52,992.47
2008,01,04,01,53,992.42
2008,01,04,01,54,992.37
2008,01,04,01,55,992.24
2008,01,04,01,56,992.17
2008,01,04,01,57,992.11
2008,01,04,01,58,992.08
2008,01,04,01,59,992.04
2008,01,04,02,00,992.00
2008,01,04,02,01,991.87
2008,01,04,02,02,991.84
2008,01,04,02,03,991.81
2008,01,04,02,04,991.77
2008,01,04,02,05,991.77
2008,01,04,02,06,991.81
2008,01,04,02,07,991.77
2008,01,04,02,08,991.74
2008,01,04,02,09,991.69
2008,01,04,02,10,991.57
2008,01,04,02,11,991.56
2008,01,04,02,12,991.51
2008,01,04,02,13,991.61
2008,01,04,02,14,991.68
2008,01,04,02,15,991.81
2008,01,04,02,16,991.84
2008,01,04,02,17,991.80
2008,01,04,02,18,991.65
2008,01,04,02,19,991.50
2008,01,04,02,20,991.51
2008,01,04,02,21,991.61
2008,01,04,02,22,991.70
2008,01,04,02,23,991.77
2008,01,04,02,24,991.73
2008,01,04,02,25,991.63
2008,01,04,02,26,991.52
2008,01,04,02,27,991.42
2008,01,04,02,28,991.35
2008,01,04,02,29,991.22
2008,01,04,02,30,991.15
2008,01,04,02,31,991.06
2008,01,04,02,32,991.03
2008,01,04,02,33,991.06
2008,01,04,02,34,991.09
2008,01,04,02,35,991.16
2008,01,04,02,36,991.13
2008,01,04,02,37,991.12
2008,01,04,02,38,991.03
2008,01,04,02,39,990.99
2008,01,04,02,40,990.98
2008,01,04,02,41,990.93
2008,01,04,02,42,990.89
2008,01,04,02,43,990.82
2008,01,04,02,44,990.82
2008,01,04,02,45,990.81
2008,01,04,02,46,990.72
2008,01,04,02,47,990.69
2008,01,04,02,48,990.69
2008,01,04,02,49,990.69
2008,01,04,02,50,990.62
2008,01,04,02,51,990.58
2008,01,04,02,52,990.51
2008,01,04,02,53,990.45
2008,01,04,02,54,990.45
2008,01,04,02,55,990.49
2008,01,04,02,56,990.45
2008,01,04,02,57,990.49
2008,01,04,02,58,990.45
2008,01,04,02,59,990.44
2008,01,04,03,00,990.37
2008,01,04,03,01,990.33
2008,01,04,03,02,990.37
2008,01,04,03,03,990.28
2008,01,04,03,04,990.25
2008,01,04,03,05,990.17
2008,01,04,03,06,990.10
2008,01,04,03,07,990.04
2008,01,04,03,08,990.00
2008,01,04,03,09,989.94
2008,01,04,03,10,989.91
2008,01,04,03,11,989.88
2008,01,04,03,12,989.84
2008,01,04,03,13,989.83
2008,01,04,03,14,989.77
2008,01,04,03,15,989.74
2008,01,04,03,16,989.74
2008,01,04,03,17,989.73
2008,01,04,03,18,989.65
2008,01,04,03,19,989.71
2008,01,04,03,20,989.70
2008,01,04,03,21,989.64
2008,01,04,03,22,989.67
2008,01,04,03,23,989.66
2008,01,04,03,24,989.60
2008,01,04,03,25,989.60
2008,01,04,03,26,989.60
2008,01,04,03,27,989.57
2008,01,04,03,28,989.54
2008,01,04,03,29,989.50
2008,01,04,03,30,989.47
2008,01,04,03,31,989.49
2008,01,04,03,32,989.37
2008,01,04,03,33,989.33
2008,01,04,03,34,989.27
2008,01,04,03,35,989.23
2008,01,04,03,36,989.16
2008,01,04,03,37,989.14
2008,01,04,03,38,989.22
2008,01,04,03,39,989.13
2008,01,04,03,40,989.09
2008,01,04,03,41,989.02
2008,01,04,03,42,988.93
2008,01,04,03,43,988.89
2008,01,04,03,44,988.89
2008,01,04,03,45,988.88
2008,01,04,03,46,988.83
2008,01,04,03,47,988.82
2008,01,04,03,48,988.66
2008,01,04,03,49,988.59
2008,01,04,03,50,988.51
2008,01,04,03,51,988.45
2008,01,04,03,52,988.45
2008,01,04,03,53,988.44
2008,01,04,03,54,988.32
2008,01,04,03,55,988.28
2008,01,04,03,56,988.24
2008,01,04,03,57,988.18
2008,01,04,03,58,988.18
2008,01,04,03,59,988.15
2008,01,04,04,00,988.05
2008,01,04,04,01,988.00
2008,01,04,04,02,987.88
2008,01,04,04,03,987.84
2008,01,04,04,04,987.80
2008,01,04,04,05,987.74
2008,01,04,04,06,987.74
2008,01,04,04,07,987.74
2008,01,04,04,08,987.71
2008,01,04,04,09,987.71
2008,01,04,04,10,987.66
2008,01,04,04,11,987.57
2008,01,04,04,12,987.53
2008,01,04,04,13,987.47
2008,01,04,04,14,987.44
2008,01,04,04,15,987.39
2008,01,04,04,16,987.34
2008,01,04,04,17,987.36
2008,01,04,04,18,987.26
2008,01,04,04,19,987.17
2008,01,04,04,20,987.09
2008,01,04,04,21,987.02
2008,01,04,04,22,986.92
2008,01,04,04,23,986.83
2008,01,04,04,24,986.82
2008,01,04,04,25,986.74
2008,01,04,04,26,986.82
2008,01,04,04,27,986.76
2008,01,04,04,28,986.79
2008,01,04,04,29,986.75
2008,01,04,04,30,986.66
2008,01,04,04,31,986.67
2008,01,04,04,32,986.50
2008,01,04,04,33,986.55
2008,01,04,04,34,986.46
2008,01,04,04,35,986.42
2008,01,04,04,36,986.35
2008,01,04,04,37,986.29
2008,01,04,04,38,986.24
2008,01,04,04,39,986.18
2008,01,04,04,40,986.12
2008,01,04,04,41,986.08
2008,01,04,04,42,986.12
2008,01,04,04,43,986.07
2008,01,04,04,44,985.98
2008,01,04,04,45,985.98
2008,01,04,04,46,985.91
2008,01,04,04,47,985.90
2008,01,04,04,48,985.81
2008,01,04,04,49,985.78
2008,01,04,04,50,985.81
2008,01,04,04,51,985.74
2008,01,04,04,52,985.71
2008,01,04,04,53,985.64
2008,01,04,04,54,985.67
2008,01,04,04,55,985.57
2008,01,04,04,56,985.57
2008,01,04,04,57,985.53
2008,01,04,04,58,985.43
2008,01,04,04,59,985.34
2008,01,04,05,00,985.30
2008,01,04,05,01,985.24
2008,01,04,05,02,985.20
2008,01,04,05,03,985.17
2008,01,04,05,04,985.10
2008,01,04,05,05,985.03
2008,01,04,05,06,984.97
2008,01,04,05,07,984.93
2008,01,04,05,08,984.89
2008,01,04,05,09,984.80
2008,01,04,05,10,984.76
2008,01,04,05,11,984.75
2008,01,04,05,12,984.63
2008,01,04,05,13,984.63
2008,01,04,05,14,984.56
2008,01,04,05,15,984.53
2008,01,04,05,16,984.49
2008,01,04,05,17,984.42
2008,01,04,05,18,984.45
2008,01,04,05,19,984.39
2008,01,04,05,20,984.36
2008,01,04,05,21,984.32
2008,01,04,05,22,984.28
2008,01,04,05,23,984.22
2008,01,04,05,24,984.15
2008,01,04,05,25,984.07
2008,01,04,05,26,984.02
2008,01,04,05,27,984.02
2008,01,04,05,28,984.01
2008,01,04,05,29,983.85
2008,01,04,05,30,983.85
2008,01,04,05,31,983.92
2008,01,04,05,32,983.95
2008,01,04,05,33,983.96
2008,01,04,05,34,984.01
2008,01,04,05,35,983.88
2008,01,04,05,36,983.95
2008,01,04,05,37,983.92
2008,01,04,05,38,983.85
2008,01,04,05,39,983.88
2008,01,04,05,40,983.78
2008,01,04,05,41,983.71
2008,01,04,05,42,983.67
2008,01,04,05,43,983.61
2008,01,04,05,44,983.58
2008,01,04,05,45,983.58
2008,01,04,05,46,983.54
2008,01,04,05,47,983.48
2008,01,04,05,48,983.41
2008,01,04,05,49,983.41
2008,01,04,05,50,983.30
2008,01,04,05,51,983.24
2008,01,04,05,52,983.20
2008,01,04,05,53,983.17
2008,01,04,05,54,983.17
2008,01,04,05,55,983.17
2008,01,04,05,56,983.14
2008,01,04,05,57,983.14
2008,01,04,05,58,983.14
2008,01,04,05,59,983.14
2008,01,04,06,00,983.17
2008,01,04,06,01,983.16
2008,01,04,06,02,983.06
2008,01,04,06,03,982.96
2008,01,04,06,04,982.86
2008,01,04,06,05,982.79
2008,01,04,06,06,982.65
2008,01,04,06,07,982.59
2008,01,04,06,08,982.56
2008,01,04,06,09,982.49
2008,01,04,06,10,982.49
2008,01,04,06,11,982.46
2008,01,04,06,12,982.42
2008,01,04,06,13,982.32
2008,01,04,06,14,982.27
2008,01,04,06,15,982.11
2008,01,04,06,16,982.05
2008,01,04,06,17,981.99
2008,01,04,06,18,981.95
2008,01,04,06,19,981.88
2008,01,04,06,20,981.85
2008,01,04,06,21,981.78
2008,01,04,06,22,981.78
2008,01,04,06,23,981.75
2008,01,04,06,24,981.75
2008,01,04,06,25,981.71
2008,01,04,06,26,981.65
2008,01,04,06,27,981.58
2008,01,04,06,28,981.51
2008,01,04,06,29,981.44
2008,01,04,06,30,981.40
2008,01,04,06,31,981.27
2008,01,04,06,32,981.24
2008,01,04,06,33,981.17
2008,01,04,06,34,981.17
2008,01,04,06,35,981.10
2008,01,04,06,36,981.07
2008,01,04,06,37,981.04
2008,01,04,06,38,980.96
2008,01,04,06,39,980.87
2008,01,04,06,40,980.79
2008,01,04,06,41,980.73
2008,01,04,06,42,980.72
2008,01,04,06,43,980.63
2008,01,04,06,44,980.60
2008,01,04,06,45,980.55
2008,01,04,06,46,980.46
2008,01,04,06,47,980.43
2008,01,04,06,48,980.39
2008,01,04,06,49,980.33
2008,01,04,06,50,980.26
2008,01,04,06,51,980.19
2008,01,04,06,52,980.19
2008,01,04,06,53,980.12
2008,01,04,06,54,980.12
2008,01,04,06,55,980.09
2008,01,04,06,56,980.12
2008,01,04,06,57,980.11
2008,01,04,06,58,980.02
2008,01,04,06,59,979.99
2008,01,04,07,00,979.92
2008,01,04,07,01,979.94
2008,01,04,07,02,979.82
2008,01,04,07,03,979.78
2008,01,04,07,04,979.75
2008,01,04,07,05,979.72
2008,01,04,07,06,979.72
2008,01,04,07,07,979.68
2008,01,04,07,08,979.65
2008,01,04,07,09,979.65
2008,01,04,07,10,979.57
2008,01,04,07,11,979.44
2008,01,04,07,12,979.34
2008,01,04,07,13,979.31
2008,01,04,07,14,979.31
2008,01,04,07,15,979.28
2008,01,04,07,16,979.28
2008,01,04,07,17,979.24
2008,01,04,07,18,979.17
2008,01,04,07,19,979.16
2008,01,04,07,20,979.11
2008,01,04,07,21,979.11
2008,01,04,07,22,979.07
2008,01,04,07,23,979.04
2008,01,04,07,24,979.07
2008,01,04,07,25,979.01
2008,01,04,07,26,979.01
2008,01,04,07,27,978.97
2008,01,04,07,28,978.87
2008,01,04,07,29,978.87
2008,01,04,07,30,978.86
2008,01,04,07,31,978.77
2008,01,04,07,32,978.73
2008,01,04,07,33,978.70
2008,01,04,07,34,978.67
2008,01,04,07,35,978.70
2008,01,04,07,36,978.63
2008,01,04,07,37,978.63
2008,01,04,07,38,978.63
2008,01,04,07,39,978.63
2008,01,04,07,40,978.57
2008,01,04,07,41,978.53
2008,01,04,07,42,978.45
2008,01,04,07,43,978.33
2008,01,04,07,44,978.36
2008,01,04,07,45,978.29
2008,01,04,07,46,978.29
2008,01,04,07,47,978.26
2008,01,04,07,48,978.23
2008,01,04,07,49,978.29
2008,01,04,07,50,978.26
2008,01,04,07,51,978.26
2008,01,04,07,52,978.19
2008,01,04,07,53,978.16
2008,01,04,07,54,978.09
2008,01,04,07,55,978.16
2008,01,04,07,56,978.09
2008,01,04,07,57,978.11
2008,01,04,07,58,977.97
2008,01,04,07,59,978.09
2008,01,04,08,00,978.02
2008,01,04,08,01,977.99
2008,01,04,08,02,977.96
2008,01,04,08,03,977.99
2008,01,04,08,04,977.92
2008,01,04,08,05,977.89
2008,01,04,08,06,977.82
2008,01,04,08,07,977.75
2008,01,04,08,08,977.82
2008,01,04,08,09,977.75
2008,01,04,08,10,977.72
2008,01,04,08,11,977.65
2008,01,04,08,12,977.62
2008,01,04,08,13,977.55
2008,01,04,08,14,977.55
2008,01,04,08,15,977.48
2008,01,04,08,16,977.52
2008,01,04,08,17,977.48
2008,01,04,08,18,977.41
2008,01,04,08,19,977.41
2008,01,04,08,20,977.35
2008,01,04,08,21,977.28
2008,01,04,08,22,977.24
2008,01,04,08,23,977.18
2008,01,04,08,24,977.18
2008,01,04,08,25,977.18
2008,01,04,08,26,977.21
2008,01,04,08,27,977.21
2008,01,04,08,28,977.11
2008,01,04,08,29,977.11
2008,01,04,08,30,977.11
2008,01,04,08,31,977.08
2008,01,04,08,32,977.08
2008,01,04,08,33,977.11
2008,01,04,08,34,977.08
2008,01,04,08,35,977.08
2008,01,04,08,36,977.08
2008,01,04,08,37,977.11
2008,01,04,08,38,977.04
2008,01,04,08,39,977.04
2008,01,04,08,40,977.11
2008,01,04,08,41,977.11
2008,01,04,08,42,977.10
2008,01,04,08,43,976.94
2008,01,04,08,44,976.86
2008,01,04,08,45,976.77
2008,01,04,08,46,976.70
2008,01,04,08,47,976.60
2008,01,04,08,48,976.60
2008,01,04,08,49,976.60
2008,01,04,08,50,976.53
2008,01,04,08,51,976.47
2008,01,04,08,52,976.43
2008,01,04,08,53,976.40
2008,01,04,08,54,976.36
2008,01,04,08,55,976.33
2008,01,04,08,56,976.26
2008,01,04,08,57,976.19
2008,01,04,08,58,976.13
2008,01,04,08,59,976.13
2008,01,04,09,00,976.13
2008,01,04,09,01,976.12
2008,01,04,09,02,976.03
2008,01,04,09,03,976.03
2008,01,04,09,04,976.09
2008,01,04,09,05,976.09
2008,01,04,09,06,976.13
2008,01,04,09,07,976.09
2008,01,04,09,08,976.09
2008,01,04,09,09,976.13
2008,01,04,09,10,976.13
2008,01,04,09,11,976.06
2008,01,04,09,12,975.99
2008,01,04,09,13,975.99
2008,01,04,09,14,976.03
2008,01,04,09,15,975.99
2008,01,04,09,16,976.06
2008,01,04,09,17,976.09
2008,01,04,09,18,976.16
2008,01,04,09,19,976.26
2008,01,04,09,20,976.30
2008,01,04,09,21,976.30
2008,01,04,09,22,976.30
2008,01,04,09,23,976.26
2008,01,04,09,24,976.23
2008,01,04,09,25,976.23
2008,01,04,09,26,976.19
2008,01,04,09,27,976.13
2008,01,04,09,28,976.13
2008,01,04,09,29,976.09
2008,01,04,09,30,976.16
2008,01,04,09,31,976.13
2008,01,04,09,32,976.06
2008,01,04,09,33,976.03
2008,01,04,09,34,976.03
2008,01,04,09,35,975.96
2008,01,04,09,36,975.98
2008,01,04,09,37,975.89
2008,01,04,09,38,975.88
2008,01,04,09,39,975.73
2008,01,04,09,40,975.89
2008,01,04,09,41,975.81
2008,01,04,09,42,975.69
2008,01,04,09,43,975.69
2008,01,04,09,44,975.62
2008,01,04,09,45,975.61
2008,01,04,09,46,975.52
2008,01,04,09,47,975.47
2008,01,04,09,48,975.25
2008,01,04,09,49,975.21
2008,01,04,09,50,975.21
2008,01,04,09,51,975.21
2008,01,04,09,52,975.14
2008,01,04,09,53,975.18
2008,01,04,09,54,975.17
2008,01,04,09,55,975.04
2008,01,04,09,56,975.11
2008,01,04,09,57,975.14
2008,01,04,09,58,975.10
2008,01,04,09,59,975.01
2008,01,04,10,00,975.03
2008,01,04,10,01,974.94
2008,01,04,10,02,974.93
2008,01,04,10,03,974.84
2008,01,04,10,04,974.81
2008,01,04,10,05,974.74
2008,01,04,10,06,974.81
2008,01,04,10,07,974.81
2008,01,04,10,08,974.77
2008,01,04,10,09,974.83
2008,01,04,10,10,974.70
2008,01,04,10,11,974.64
2008,01,04,10,12,974.67
2008,01,04,10,13,974.64
2008,01,04,10,14,974.60
2008,01,04,10,15,974.67
2008,01,04,10,16,974.71
2008,01,04,10,17,974.84
2008,01,04,10,18,974.94
2008,01,04,10,19,974.98
2008,01,04,10,20,974.98
2008,01,04,10,21,974.98
2008,01,04,10,22,975.04
2008,01,04,10,23,975.08
2008,01,04,10,24,974.97
2008,01,04,10,25,974.77
2008,01,04,10,26,974.67
2008,01,04,10,27,974.64
2008,01,04,10,28,974.53
2008,01,04,10,29,974.32
2008,01,04,10,30,974.16
2008,01,04,10,31,974.13
2008,01,04,10,32,974.07
2008,01,04,10,33,974.16
2008,01,04,10,34,974.16
2008,01,04,10,35,974.23
2008,01,04,10,36,974.30
2008,01,04,10,37,974.37
2008,01,04,10,38,974.43
2008,01,04,10,39,974.57
2008,01,04,10,40,974.54
2008,01,04,10,41,974.50
2008,01,04,10,42,974.43
2008,01,04,10,43,974.47
2008,01,04,10,44,974.47
2008,01,04,10,45,974.36
2008,01,04,10,46,974.23
2008,01,04,10,47,974.23
2008,01,04,10,48,974.23
2008,01,04,10,49,974.23
2008,01,04,10,50,974.23
2008,01,04,10,51,974.09
2008,01,04,10,52,973.99
2008,01,04,10,53,973.98
2008,01,04,10,54,973.89
2008,01,04,10,55,973.86
2008,01,04,10,56,973.79
2008,01,04,10,57,973.76
2008,01,04,10,58,973.72
2008,01,04,10,59,973.65
2008,01,04,11,00,973.65
2008,01,04,11,01,973.82
2008,01,04,11,02,973.79
2008,01,04,11,03,973.79
2008,01,04,11,04,973.77
2008,01,04,11,05,973.88
2008,01,04,11,06,973.77
2008,01,04,11,07,973.85
2008,01,04,11,08,973.76
2008,01,04,11,09,973.69
2008,01,04,11,10,973.65
2008,01,04,11,11,973.65
2008,01,04,11,12,973.52
2008,01,04,11,13,973.55
2008,01,04,11,14,973.45
2008,01,04,11,15,973.45
2008,01,04,11,16,973.49
2008,01,04,11,17,973.49
2008,01,04,11,18,973.45
2008,01,04,11,19,973.38
2008,01,04,11,20,973.35
2008,01,04,11,21,973.32
2008,01,04,11,22,973.32
2008,01,04,11,23,973.34
2008,01,04,11,24,973.25
2008,01,04,11,25,973.25
2008,01,04,11,26,973.25
2008,01,04,11,27,973.25
2008,01,04,11,28,973.21
2008,01,04,11,29,973.18
2008,01,04,11,30,973.18
2008,01,04,11,31,973.18
2008,01,04,11,32,973.15
2008,01,04,11,33,973.22
2008,01,04,11,34,973.35
2008,01,04,11,35,973.38
2008,01,04,11,36,973.35
2008,01,04,11,37,973.42
2008,01,04,11,38,973.49
2008,01,04,11,39,973.42
2008,01,04,11,40,973.42
2008,01,04,11,41,973.45
2008,01,04,11,42,973.42
2008,01,04,11,43,973.38
2008,01,04,11,44,973.38
2008,01,04,11,45,973.45
2008,01,04,11,46,973.38
2008,01,04,11,47,973.35
2008,01,04,11,48,973.34
2008,01,04,11,49,973.25
2008,01,04,11,50,973.32
2008,01,04,11,51,973.32
2008,01,04,11,52,973.32
2008,01,04,11,53,973.28
2008,01,04,11,54,973.25
2008,01,04,11,55,973.11
2008,01,04,11,56,973.20
2008,01,04,11,57,973.07
2008,01,04,11,58,972.82
2008,01,04,11,59,973.01
2008,01,04,12,00,972.98
2008,01,04,12,01,972.91
2008,01,04,12,02,972.94
2008,01,04,12,03,973.01
2008,01,04,12,04,972.98
2008,01,04,12,05,973.05
2008,01,04,12,06,973.05
2008,01,04,12,07,972.98
2008,01,04,12,08,972.98
2008,01,04,12,09,972.94
2008,01,04,12,10,972.94
2008,01,04,12,11,972.91
2008,01,04,12,12,973.01
2008,01,04,12,13,972.94
2008,01,04,12,14,972.94
2008,01,04,12,15,972.88
2008,01,04,12,16,972.91
2008,01,04,12,17,972.88
2008,01,04,12,18,972.88
2008,01,04,12,19,972.91
2008,01,04,12,20,972.84
2008,01,04,12,21,972.84
2008,01,04,12,22,972.81
2008,01,04,12,23,972.84
2008,01,04,12,24,972.77
2008,01,04,12,25,972.81
2008,01,04,12,26,972.77
2008,01,04,12,27,972.74
2008,01,04,12,28,972.71
2008,01,04,12,29,972.71
2008,01,04,12,30,972.77
2008,01,04,12,31,972.67
2008,01,04,12,32,972.67
2008,01,04,12,33,972.81
2008,01,04,12,34,972.84
2008,01,04,12,35,972.81
2008,01,04,12,36,972.84
2008,01,04,12,37,972.81
2008,01,04,12,38,972.94
2008,01,04,12,39,972.98
2008,01,04,12,40,973.01
2008,01,04,12,41,973.05
2008,01,04,12,42,972.98
2008,01,04,12,43,972.89
2008,01,04,12,44,973.05
2008,01,04,12,45,973.01
2008,01,04,12,46,972.94
2008,01,04,12,47,972.94
2008,01,04,12,48,973.01
2008,01,04,12,49,972.98
2008,01,04,12,50,972.94
2008,01,04,12,51,973.01
2008,01,04,12,52,973.04
2008,01,04,12,53,972.91
2008,01,04,12,54,972.94
2008,01,04,12,55,972.98
2008,01,04,12,56,973.01
2008,01,04,12,57,973.15
2008,01,04,12,58,973.25
2008,01,04,12,59,973.18
2008,01,04,13,00,973.15
2008,01,04,13,01,973.11
2008,01,04,13,02,973.05
2008,01,04,13,03,973.02
2008,01,04,13,04,973.11
2008,01,04,13,05,973.25
2008,01,04,13,06,973.21
2008,01,04,13,07,973.21
2008,01,04,13,08,973.28
2008,01,04,13,09,973.38
2008,01,04,13,10,973.35
2008,01,04,13,11,973.38
2008,01,04,13,12,973.38
2008,01,04,13,13,973.35
2008,01,04,13,14,973.25
2008,01,04,13,15,973.15
2008,01,04,13,16,973.01
2008,01,04,13,17,972.91
2008,01,04,13,18,972.94
2008,01,04,13,19,972.81
2008,01,04,13,20,972.81
2008,01,04,13,21,972.77
2008,01,04,13,22,972.84
2008,01,04,13,23,972.77
2008,01,04,13,24,972.74
2008,01,04,13,25,972.74
2008,01,04,13,26,972.71
2008,01,04,13,27,972.74
2008,01,04,13,28,972.77
2008,01,04,13,29,972.74
2008,01,04,13,30,972.71
2008,01,04,13,31,972.74
2008,01,04,13,32,972.71
2008,01,04,13,33,972.71
2008,01,04,13,34,972.71
2008,01,04,13,35,972.71
2008,01,04,13,36,972.81
2008,01,04,13,37,972.81
2008,01,04,13,38,972.84
2008,01,04,13,39,972.77
2008,01,04,13,40,972.67
2008,01,04,13,41,972.71
2008,01,04,13,42,972.71
2008,01,04,13,43,972.77
2008,01,04,13,44,972.88
2008,01,04,13,45,972.84
2008,01,04,13,46,972.84
2008,01,04,13,47,972.84
2008,01,04,13,48,972.93
2008,01,04,13,49,972.91
2008,01,04,13,50,972.98
2008,01,04,13,51,973.01
2008,01,04,13,52,973.05
2008,01,04,13,53,973.08
2008,01,04,13,54,973.08
2008,01,04,13,55,973.01
2008,01,04,13,56,973.05
2008,01,04,13,57,973.01
2008,01,04,13,58,973.05
2008,01,04,13,59,973.01
2008,01,04,14,00,973.01
2008,01,04,14,01,973.05
2008,01,04,14,02,973.08
2008,01,04,14,03,973.01
2008,01,04,14,04,973.05
2008,01,04,14,05,973.01
2008,01,04,14,06,972.98
2008,01,04,14,07,972.98
2008,01,04,14,08,973.05
2008,01,04,14,09,973.01
2008,01,04,14,10,973.01
2008,01,04,14,11,973.01
2008,01,04,14,12,973.08
2008,01,04,14,13,973.15
2008,01,04,14,14,973.18
2008,01,04,14,15,973.21
2008,01,04,14,16,973.21
2008,01,04,14,17,973.21
2008,01,04,14,18,973.15
2008,01,04,14,19,973.15
2008,01,04,14,20,973.18
2008,01,04,14,21,973.15
2008,01,04,14,22,973.11
2008,01,04,14,23,973.11
2008,01,04,14,24,973.18
2008,01,04,14,25,973.18
2008,01,04,14,26,973.18
2008,01,04,14,27,973.15
2008,01,04,14,28,973.15
2008,01,04,14,29,973.08
2008,01,04,14,30,973.08
2008,01,04,14,31,973.05
2008,01,04,14,32,973.05
2008,01,04,14,33,973.11
2008,01,04,14,34,973.11
2008,01,04,14,35,973.11
2008,01,04,14,36,973.11
2008,01,04,14,37,973.08
2008,01,04,14,38,973.11
2008,01,04,14,39,973.11
2008,01,04,14,40,973.15
2008,01,04,14,41,973.18
2008,01,04,14,42,973.21
2008,01,04,14,43,973.21
2008,01,04,14,44,973.18
2008,01,04,14,45,973.15
2008,01,04,14,46,973.15
2008,01,04,14,47,973.08
2008,01,04,14,48,973.08
2008,01,04,14,49,973.05
2008,01,04,14,50,973.11
2008,01,04,14,51,973.11
2008,01,04,14,52,973.08
2008,01,04,14,53,973.11
2008,01,04,14,54,973.11
2008,01,04,14,55,973.11
2008,01,04,14,56,973.15
2008,01,04,14,57,973.11
2008,01,04,14,58,973.05
2008,01,04,14,59,972.94
2008,01,04,15,00,972.84
2008,01,04,15,01,972.81
2008,01,04,15,02,972.81
2008,01,04,15,03,972.71
2008,01,04,15,04,972.67
2008,01,04,15,05,972.64
2008,01,04,15,06,972.64
2008,01,04,15,07,972.64
2008,01,04,15,08,972.64
2008,01,04,15,09,972.61
2008,01,04,15,10,972.57
2008,01,04,15,11,972.57
2008,01,04,15,12,972.57
2008,01,04,15,13,972.67
2008,01,04,15,14,972.77
2008,01,04,15,15,972.77
2008,01,04,15,16,972.91
2008,01,04,15,17,972.84
2008,01,04,15,18,972.88
2008,01,04,15,19,972.91
2008,01,04,15,20,972.88
2008,01,04,15,21,972.84
2008,01,04,15,22,972.81
2008,01,04,15,23,972.77
2008,01,04,15,24,972.81
2008,01,04,15,25,972.84
2008,01,04,15,26,972.81
2008,01,04,15,27,972.84
2008,01,04,15,28,972.81
2008,01,04,15,29,972.81
2008,01,04,15,30,972.77
2008,01,04,15,31,972.77
2008,01,04,15,32,972.74
2008,01,04,15,33,972.77
2008,01,04,15,34,972.74
2008,01,04,15,35,972.67
2008,01,04,15,36,972.61
2008,01,04,15,37,972.71
2008,01,04,15,38,972.71
2008,01,04,15,39,972.64
2008,01,04,15,40,972.64
2008,01,04,15,41,972.57
2008,01,04,15,42,972.47
2008,01,04,15,43,972.47
2008,01,04,15,44,972.40
2008,01,04,15,45,972.33
2008,01,04,15,46,972.27
2008,01,04,15,47,972.27
2008,01,04,15,48,972.33
2008,01,04,15,49,972.30
2008,01,04,15,50,972.27
2008,01,04,15,51,972.30
2008,01,04,15,52,972.27
2008,01,04,15,53,972.23
2008,01,04,15,54,972.20
2008,01,04,15,55,972.16
2008,01,04,15,56,972.16
2008,01,04,15,57,972.06
2008,01,04,15,58,972.06
2008,01,04,15,59,972.00
2008,01,04,16,00,972.03
2008,01,04,16,01,972.03
2008,01,04,16,02,972.03
2008,01,04,16,03,972.00
2008,01,04,16,04,971.96
2008,01,04,16,05,971.89
2008,01,04,16,06,971.86
2008,01,04,16,07,971.89
2008,01,04,16,08,971.89
2008,01,04,16,09,971.83
2008,01,04,16,10,971.89
2008,01,04,16,11,971.89
2008,01,04,16,12,971.86
2008,01,04,16,13,971.89
2008,01,04,16,14,971.89
2008,01,04,16,15,971.93
2008,01,04,16,16,971.96
2008,01,04,16,17,971.93
2008,01,04,16,18,971.93
2008,01,04,16,19,971.86
2008,01,04,16,20,971.79
2008,01,04,16,21,971.76
2008,01,04,16,22,971.69
2008,01,04,16,23,971.66
2008,01,04,16,24,971.59
2008,01,04,16,25,971.56
2008,01,04,16,26,971.52
2008,01,04,16,27,971.52
2008,01,04,16,28,971.56
2008,01,04,16,29,971.59
2008,01,04,16,30,971.62
2008,01,04,16,31,971.56
2008,01,04,16,32,971.59
2008,01,04,16,33,971.62
2008,01,04,16,34,971.59
2008,01,04,16,35,971.59
2008,01,04,16,36,971.52